This demonstration page uses our WeatherBlox Daily Observations layout. Learn more.

Left ArrowRight Arrow

36.17497, -115.13722

Hourly Observations for December 19, 2019

Temp ( °F °C ) Dew Point ( °F °C ) Humidity (%) Winds ( mph kmh ) Pressure ( in mb ) Visibility ( mi km ) Precip ( " mm )
12:53 am 00:53 Clear 40 4.4 17 -8.3 40 40 NNW 8 13 30.14 1021 10 16 0.00 0.00
1:53 am 01:53 Clear 38 3.3 17 -8.3 43 43 WNW 8 13 30.14 1021 10 16 0.00 0.00
2:53 am 02:53 Clear 42 5.6 16 -8.9 35 35 NW 12 19 30.14 1021 10 16 0.00 0.00
3:53 am 03:53 Clear 38 3.3 19 -7.2 46 46 Calm 30.16 1021 10 16 0.00 0.00
4:53 am 04:53 Clear 41 5 18 -7.8 39 39 NNW 16 26 30.16 1021 10 16 0.00 0.00
5:53 am 05:53 Clear 40 4.4 15 -9.4 36 36 NW 7 11 30.18 1022 10 16 0.00 0.00
6:53 am 06:53 Sunny 40 4.4 16 -8.9 38 38 NW 9 15 30.20 1023 10 16 0.00 0.00
7:53 am 07:53 Sunny 41 5 17 -8.3 38 38 NNW 9 15 30.23 1024 10 16 0.00 0.00
8:53 am 08:53 Sunny 45 7.2 17 -8.3 33 33 NW 10 17 30.25 1024 10 16 0.00 0.00
9:53 am 09:53 Sunny 49 9.4 17 -8.3 28 28 NNW 10 17 30.26 1025 10 16 0.00 0.00
10:53 am 10:53 Sunny 52 11.1 18 -7.8 26 26 N 6 9 30.24 1024 10 16 0.00 0.00
11:53 am 11:53 Sunny 53 11.7 14 -10 21 21 Calm 30.22 1023 10 16 0.00 0.00
12:53 pm 12:53 Sunny 56 13.3 15 -9.4 20 20 N 6 9 30.20 1023 10 16 0.00 0.00
1:53 pm 13:53 Sunny 58 14.4 13 -10.6 17 17 Calm 30.20 1023 10 16 0.00 0.00
2:53 pm 14:53 Sunny 57 13.9 13 -10.6 17 17 Calm 30.21 1023 10 16 0.00 0.00
3:53 pm 15:53 Sunny 54 12.2 17 -8.3 23 23 E 6 9 30.23 1024 10 16 0.00 0.00
4:53 pm 16:53 Clear 51 10.6 17 -8.3 26 26 ENE 5 7 30.25 1024 10 16 0.00 0.00
5:53 pm 17:53 Clear 50 10 18 -7.8 28 28 Calm 30.27 1025 10 16 0.00 0.00
6:53 pm 18:53 Clear 48 8.9 20 -6.7 33 33 NW 5 7 30.30 1026 10 16 0.00 0.00
7:53 pm 19:53 Clear 44 6.7 22 -5.6 41 41 WNW 7 11 30.33 1027 10 16 0.00 0.00
8:53 pm 20:53 Clear 43 6.1 22 -5.6 43 43 WNW 7 11 30.35 1028 10 16 0.00 0.00
9:53 pm 21:53 Clear 43 6.1 21 -6.1 42 42 W 6 9 30.36 1028 10 16 0.00 0.00
10:53 pm 22:53 Clear 41 5 22 -5.6 47 47 Calm 30.37 1028 10 16 0.00 0.00
11:53 pm 23:53 Clear 42 5.6 21 -6.1 43 43 NW 6 9 30.37 1029 10 16 0.00 0.00

Powered by AerisWeather